Home > Weather > Constantine > Past weeks

Flag for Algeria Past Weather in Constantine, Algeria — Yesterday and Last 2 Weeks

Now
63 °F

Passing clouds.


Feels Like: 63 °F
Forecast: 57 / 86 °F
Wind: 3 mph from Northwest

Location: Constantine Airport

Current Time: Jul 24, 2016 at 6:00:30 AM

Latest Report: Jul 24, 2016 at 5:30 AM


Visibility: N/A

Pressure: 30.12 "Hg (28.21 "Hg at 557m altitude)

Humidity: 94%

Dew Point: 61 °F

Location of ConstantineLocation

Past Weather in Constantine — Graph

°F

Constantine Temperature Yesterday

Maximum temperature yesterday: 90 °F (at 1:00 PM)
Minimum temperature yesterday: 70 °F (at 9:30 PM)
Average temperature yesterday: 79 °F

High & Low Weather Summary for the Past Weeks

 TemperatureHumidityPressure
High104 °F (Jul 10, 2:30 PM)94% (Jul 24, 3:30 AM)30.24 "Hg (Jul 24, 3:30 AM)
Low48 °F (Jul 16, 5:00 AM)10% (Jul 20, 2:30 PM)29.98 "Hg (Jul 10, 2:00 PM)
Average78 °F43%30.11 "Hg
* Reported Jul 9 5:00 AM — Jul 24 5:00 AM, Constantine, Weather by CustomWeather, © 2016

Note: Actual official high and low records may vary slightly from our data, if they occured in-between our weather recording intervals... More about our weather records

Advertising

Constantine Weather History for the Previous 24 Hours

Scroll right to see more
 ConditionsComfort  
Time TempWeatherWind HumidityBarometerVisibility
5:00 AM
Sun, Jul 24
63 °FPassing clouds.5 mph94%30.09 "HgN/A
4:30 AM63 °FPassing clouds.6 mph94%30.09 "HgN/A
4:00 AM63 °FPassing clouds.2 mph94%30.12 "HgN/A
3:30 AM63 °FPassing clouds.No wind94%30.12 "HgN/A
3:00 AM63 °FPassing clouds.5 mph88%30.12 "HgN/A
2:30 AM64 °FPassing clouds.No wind83%30.12 "HgN/A
2:00 AM64 °FPassing clouds.3 mph83%30.12 "HgN/A
1:30 AM66 °FPassing clouds.No wind83%30.12 "HgN/A
1:00 AM66 °FPassing clouds.2 mph83%30.12 "HgN/A
12:30 AM68 °FPassing clouds.2 mph73%30.12 "HgN/A
11:30 PM
Sat, Jul 23
70 °FPassing clouds.6 mph60%30.12 "HgN/A
11:00 PM70 °FPassing clouds.6 mph64%30.12 "HgN/A
10:30 PM70 °FPassing clouds.5 mph69%30.12 "HgN/A
10:00 PM70 °FPassing clouds.2 mph69%30.12 "HgN/A
9:30 PM70 °FPassing clouds.5 mph64%30.12 "HgN/A
9:00 PM72 °FPassing clouds.6 mph61%30.12 "HgN/A
8:30 PM72 °FPassing clouds.7 mph61%30.09 "HgN/A
8:00 PM73 °FPartly cloudy.10 mph53%30.09 "HgN/A
7:30 PM75 °FBroken clouds.13 mph50%30.09 "HgN/A
7:00 PM75 °FBroken clouds.17 mph54%30.09 "HgN/A
6:30 PM79 °FScattered clouds.17 mph48%30.07 "HgN/A
6:00 PM79 °FScattered clouds.15 mph54%30.07 "HgN/A
5:30 PM81 °FPassing clouds.16 mph51%30.07 "HgN/A
5:00 PM82 °FPassing clouds.17 mph51%30.04 "HgN/A
4:30 PM84 °FScattered clouds.16 mph45%30.04 "HgN/A
4:00 PM86 °FScattered clouds.15 mph40%30.04 "HgN/A
3:30 PM88 °FPassing clouds.13 mph35%30.04 "HgN/A
3:00 PM90 °FPassing clouds.14 mph36%30.04 "HgN/A
2:30 PM88 °FScattered clouds.13 mph38%30.04 "HgN/A
2:00 PM88 °FPassing clouds.13 mph38%30.07 "HgN/A
1:30 PM88 °FPassing clouds.15 mph38%30.07 "HgN/A
1:00 PM90 °FPassing clouds.12 mph36%30.07 "HgN/A
12:30 PM88 °FPassing clouds.12 mph35%30.07 "HgN/A
12:00 PM88 °FPassing clouds.12 mph33%30.07 "HgN/A
11:30 AM86 °FPassing clouds.10 mph40%30.07 "HgN/A
11:00 AM86 °FPassing clouds.12 mph40%30.07 "HgN/A
10:30 AM84 °FPassing clouds.12 mph37%30.09 "HgN/A
10:00 AM82 °FPassing clouds.10 mph40%30.09 "HgN/A
9:30 AM81 °FPassing clouds.12 mph42%30.07 "HgN/A
9:00 AM79 °FPassing clouds.12 mph45%30.07 "HgN/A
8:30 AM81 °FPassing clouds.5 mph37%30.07 "HgN/A
8:00 AM79 °FPassing clouds.3 mph39%30.07 "HgN/A
7:30 AM77 °FScattered clouds.2 mph44%30.07 "HgN/A
7:00 AM75 °FPassing clouds.2 mph44%30.07 "HgN/A
6:30 AM72 °FScattered clouds.3 mph47%30.04 "HgN/A
6:00 AM73 °FScattered clouds.3 mph41%30.04 "HgN/A
Weather by CustomWeather, © 2016

See weather overviewHow to use our weather pages